This is the latest recevied weather packets stored in our database for station/object 4S6DRJ-13. If no packets are shown the sender has not sent any weather packets the latest 10 day(s).
| Time | Temp. | Humidity | Pressure | Rain* | Wind** | Luminosity | Snow |
|---|---|---|---|---|---|---|---|
| 1777576532 | 27.22° C | 93% | 1008.2 hPa | 0 mm | 0.45 m/s, 181° | 0 W/m² | - |
| 1777576471 | 27.22° C | 93% | 1008.3 hPa | 0 mm | 0.45 m/s, 184° | 0 W/m² | - |
| 1777576410 | 27.22° C | 93% | 1008.3 hPa | 0 mm | 0.89 m/s, 164° | 0 W/m² | - |
| 1777576351 | 27.22° C | 93% | 1008.2 hPa | 0 mm | 0.45 m/s, 137° | 0 W/m² | - |
| 1777576288 | 27.22° C | 93% | 1008.4 hPa | 0 mm | 0.89 m/s, 137° | 0 W/m² | - |
| 1777576227 | 27.22° C | 93% | 1008.3 hPa | 0 mm | 0.45 m/s, 158° | 0 W/m² | - |
| 1777576166 | 27.22° C | 93% | 1008.1 hPa | 0 mm | 0.89 m/s, 166° | 0 W/m² | - |
| 1777576105 | 27.22° C | 93% | 1008.1 hPa | 0 mm | 0.45 m/s, 122° | 0 W/m² | - |
| 1777576044 | 27.22° C | 93% | 1008.1 hPa | 0 mm | 0.89 m/s, 176° | 0 W/m² | - |
| 1777575983 | 27.22° C | 93% | 1008.2 hPa | 0 mm | 0.45 m/s, 157° | 0 W/m² | - |
| 1777575923 | 27.22° C | 93% | 1008.2 hPa | 0 mm | 0.89 m/s, 144° | 0 W/m² | - |
| 1777575861 | 27.22° C | 93% | 1008.2 hPa | 0 mm | 0.89 m/s, 145° | 0 W/m² | - |
| 1777575800 | 27.22° C | 93% | 1008.1 hPa | 0 mm | 0.89 m/s, 178° | 0 W/m² | - |
| 1777575739 | 27.22° C | 93% | 1008 hPa | 0 mm | 0.89 m/s, 165° | 0 W/m² | - |
| 1777575678 | 27.22° C | 93% | 1008.2 hPa | 0 mm | 0.45 m/s, 149° | 0 W/m² | - |
| 1777575617 | 27.22° C | 93% | 1008.1 hPa | 0 mm | 0.89 m/s, 179° | 0 W/m² | - |
| 1777575556 | 27.22° C | 93% | 1008.2 hPa | 0 mm | 0.45 m/s, 127° | 0 W/m² | - |
| 1777575495 | 27.22° C | 93% | 1008.2 hPa | 0 mm | 0 m/s | 0 W/m² | - |
| 1777575434 | 27.22° C | 93% | 1008.2 hPa | 0 mm | 0 m/s | 0 W/m² | - |
| 1777575373 | 27.22° C | 93% | 1008.2 hPa | 0 mm | 0 m/s | 0 W/m² | - |
| 1777575313 | 27.22° C | 93% | 1008.2 hPa | 0 mm | 0 m/s | 0 W/m² | - |
| 1777575251 | 27.22° C | 93% | 1008.3 hPa | 0 mm | 0 m/s | 0 W/m² | - |
| 1777575190 | 26.67° C | 93% | 1008.4 hPa | 0 mm | 0.45 m/s, 169° | 0 W/m² | - |
| 1777575129 | 26.67° C | 93% | 1008.3 hPa | 0 mm | 0 m/s | 0 W/m² | - |
| 1777575068 | 26.67° C | 93% | 1008.3 hPa | 0 mm | 0 m/s | 0 W/m² | - |
* Rain latest hour (hover to see other rain measurements)
** Current wind speed in m/s (hover to see current wind gust speed)